Location: Newark
(55.2875°N, 3.1864°W)
Time: 02:23:10
(UTC+00:00)

ISS - Pass Details

Date: 02 February 2020
Orbit: 415 x 422 km, 51.6° (Epoch: 27 February)

Event Time Altitude Azimuth Distance (km) Brightness Sun altitude
Rises 19:51:04 0° 274° (W) 2,381 1.4 -25.7°
Reaches altitude 10° 19:53:42 10° 253° (WSW) 1,511 -0.1 -26.1°
Enters shadow 19:55:17 16° 226° (SW) 1,207 -1.1 -26.3°
